[[{"header":{"parameterUnit":"m.s-1","parameterCategory":1,"la1":30.2991,"la2":30.254,"lo1":-89.0895,"lo2":-89.0444,"dy":0.0017,"dx":0.0017,"nx":28,"ny":28,"refTime":"2023-08-25T21:00:00:Z","depth":0,"parameterNumber":2,"parameterNumberName":"U-component_of_WINDS"},"data":[0,0,0,0,0,0,0,0,0,0,0,0,0,0,0,0,0,0,0,0,0,0,0,0,0,0,0,0,0,0,0,0,0,0,0,0,0,0,0,0,0,0,0,0,0,0,0,0,0,0,0,0,0,0,0,0,0,0,1.3416,1.3419,0,1.3617,1.3619,1.3622,1.3584,1.358,1.3577,1.3573,1.3786,1.3795,1.3804,0,0,0,0,0,0,0,0,0,0,0,0,0,1.3007,1.3015,1.3416,1.3419,1.3421,1.3617,1.3619,1.3622,1.3585,1.358,1.3576,1.3572,1.3783,1.3794,1.3805,0,0,0,0,0,0,0,0,0,0,0,0,0,1.3194,1.3017,1.3416,1.3426,1.3429,1.3616,1.362,1.3623,1.3586,1.358,1.3575,1.357,1.378,1.3793,1.3806,1.3999,0,0,1.3848,1.3854,0,0,0,0,0,0,0,0,1.3184,1.3209,1.3422,1.3426,1.3429,1.357,1.3553,1.3749,1.3587,1.3526,1.3573,1.3567,1.3719,1.3737,1.3787,1.4009,1.4018,1.3849,1.3857,1.3863,1.3867,0,0,0,0,0,0,0,1.3171,1.3201,1.3496,1.3425,1.343,1.3423,1.3443,1.359,1.3651,1.3531,1.3529,1.3553,1.372,1.3774,1.3792,1.4021,1.3849,1.3861,1.3869,1.3874,1.4411,1.4417,0,0,0,0,0,0,1.3154,1.319,1.3489,1.3502,1.329,1.3434,1.3457,1.353,1.3649,1.3662,1.3557,1.355,1.3754,1.3776,1.3799,1.4033,1.3863,1.3876,1.3884,1.4405,1.4412,1.4419,0,0,0,0,0,0,1.3145,1.3181,1.3481,1.3345,1.3383,1.3447,1.3529,1.3537,1.3591,1.3669,1.368,1.3601,1.375,1.378,1.3949,1.404,1.3882,1.3894,1.4398,1.4407,1.4416,1.4501,0,0,0,0,0,0,1.3133,1.3178,1.325,1.3347,1.339,1.3626,1.3535,1.3545,1.3614,1.3606,1.3713,1.3725,1.3748,1.3929,1.3962,1.4055,1.3905,1.439,1.4402,1.4413,1.449,1.4512,1.453,0,0,0,0,0,1.3119,1.3267,1.3254,1.329,1.3482,1.3631,1.3656,1.3678,1.3621,1.3695,1.3745,1.3722,1.4024,1.3947,1.3984,1.4082,1.4384,1.4398,1.4412,1.4481,1.4507,1.4529,0,0,0,0,0,0,1.3182,1.328,1.3266,1.345,1.3532,1.3624,1.3719,1.3705,1.3807,1.3796,1.3821,1.3845,1.4017,1.4066,1.3978,1.4275,1.4196,1.4218,1.4236,1.4262,1.4281,1.4267,1.3916,0,0,0,0,0,1.3216,1.3327,1.3408,1.3563,1.3605,1.3655,1.3721,1.373,1.3817,1.3852,1.3915,1.4002,1.4116,1.4192,1.4302,1.4496,1.452,1.4583,1.4603,1.4619,1.4638,1.4745,1.4774,1.4464,1.4464,1.4464,0,0,1.329,1.3358,1.3427,1.3577,1.3642,1.3759,1.3684,1.3811,1.3898,1.3872,1.4035,1.4084,1.4183,1.4366,1.445,1.4413,1.4728,1.4636,1.4648,1.4659,1.4763,1.4792,1.4818,1.4473,1.4472,1.447,0,0,1.3485,1.3546,1.3682,1.3748,1.3846,1.3878,1.391,1.4005,1.4036,1.4198,1.4181,1.4287,1.4483,1.4555,1.4617,1.4838,1.4821,1.4873,1.4978,1.5083,1.5107,1.5129,1.5209,1.5237,1.4892,1.4892,1.4892,0,1.3565,1.3737,1.3754,1.3882,1.3949,1.3928,1.4067,1.4131,1.4261,1.4309,1.4265,1.4511,1.4577,1.4776,1.483,1.488,1.492,1.4862,1.5102,1.5124,1.5145,1.5221,1.5251,1.4898,1.4897,1.4896,1.4896,0,1.3832,1.3952,1.405,1.4173,1.4252,1.4385,1.4423,1.4501,1.4503,1.4541,1.4708,1.4785,1.491,1.4958,1.4963,1.5159,1.5133,1.5095,1.5017,1.5179,1.5252,1.5281,1.4906,1.4904,1.4902,1.4901,0,0,1.4073,1.4202,1.4238,1.4294,1.44,1.4494,1.4627,1.4747,1.4813,1.4904,1.5017,1.5183,1.5148,1.5219,1.5232,1.5323,1.5494,1.5274,1.5277,1.5313,1.5716,1.5744,1.5778,1.5483,1.5488,1.5493,1.5708,0,1.4277,1.4508,1.4527,1.4736,1.4848,1.483,1.4946,1.5025,1.5063,1.5165,1.5209,1.5326,1.5271,1.5314,1.5404,1.5454,1.5576,1.5439,1.559,1.5595,1.5567,1.5815,1.5846,1.6045,1.5736,1.5741,1.5745,0,1.4547,1.4643,1.4863,1.4953,1.5001,1.5104,1.5216,1.5313,1.5403,1.5424,1.5502,1.5502,1.5641,1.5556,1.5748,1.5655,1.5718,1.5752,1.576,1.5776,1.568,1.5839,1.6109,1.614,1.5789,1.5786,1.5782,0,1.4702,1.4886,1.5041,1.5089,1.5199,1.5272,1.5321,1.5405,1.5476,1.5574,1.5621,1.5734,1.5797,1.5886,1.5918,1.5853,1.6109,1.6027,1.6132,1.6132,1.6188,1.6184,1.6473,1.6227,1.6227,1.6226,1.6226,0,1.4929,1.5065,1.5112,1.5208,1.5359,1.538,1.553,1.5576,1.5651,1.5757,1.5748,1.5848,1.5883,1.5989,1.6015,1.617,1.6199,1.6222,1.6227,1.6223,1.622,1.6265,1.6253,1.6234,1.6232,1.6231,1.623,0,1.5128,1.5165,1.5333,1.5421,1.5447,1.5555,1.5632,1.5726,1.5761,1.5895,1.5928,1.5986,1.6111,1.615,1.6301,1.6318,1.6501,1.6493,1.647,1.6471,1.6574,1.6564,1.6903,1.6949,1.6672,1.6675,1.6677,0,1.5271,1.5374,1.5474,1.5542,1.5594,1.5706,1.5777,1.5802,1.5878,1.5987,1.6068,1.619,1.629,1.649,1.6547,1.6663,1.6659,1.677,1.6677,1.6669,1.6662,1.6655,1.6666,1.6788,1.6791,1.6793,1.6795,0,1.5521,1.5534,1.5636,1.5745,1.583,1.5918,1.6003,1.606,1.6098,1.6184,1.6309,1.6386,1.6539,1.6662,1.678,1.6833,1.6822,1.6823,1.6854,1.6852,1.6834,1.6845,1.6518,1.6816,1.6814,1.6812,1.6811,1.681,1.5697,1.5788,1.5872,1.5986,1.6052,1.6131,1.6223,1.627,1.6374,1.6499,1.6508,1.6645,1.6733,1.6889,1.6948,1.7056,1.7025,1.7069,1.7081,1.7091,1.71,1.6815,1.7078,1.7077,1.7077,1.7076,1.7076,0,1.5947,1.6,1.6105,1.6222,1.6313,1.6291,1.6383,1.6461,1.6581,1.6662,1.676,1.6905,1.7024,1.7089,1.7208,1.7282,1.728,1.7313,1.7308,1.7321,1.7121,1.7083,1.7313,1.7313,1.7313,1.7313,1.7312,1.7312,1.6088,1.6241,1.6264,1.645,1.6502,1.6634,1.6689,1.6762,1.6827,1.6989,1.7087,1.7127,1.7204,1.7328,1.7436,1.7452,1.7497,1.7534,1.7547,1.7359,1.7335,1.7312,1.7276,1.7543,1.7543,1.7738,1.7739,1.7741]},{"header":{"parameterUnit":"m.s-1","parameterCategory":1,"la1":30.2991,"la2":30.254,"lo1":-89.0895,"lo2":-89.0444,"dy":0.0017,"dx":0.0017,"nx":28,"ny":28,"refTime":"2023-08-25T21:00:00:Z","depth":0,"parameterNumber":3,"parameterNumberName":"V-component_of_WINDS"},"data":[0,0,0,0,0,0,0,0,0,0,0,0,0,0,0,0,0,0,0,0,0,0,0,0,0,0,0,0,0,0,0,0,0,0,0,0,0,0,0,0,0,0,0,0,0,0,0,0,0,0,0,0,0,0,0,0,0,0,1.7646,1.7646,0,1.7712,1.7713,1.7713,1.7599,1.7595,1.7592,1.7588,1.7656,1.7661,1.7666,0,0,0,0,0,0,0,0,0,0,0,0,0,1.7417,1.7422,1.7645,1.7646,1.7647,1.7712,1.7713,1.7714,1.76,1.7595,1.7591,1.7586,1.7654,1.766,1.7667,0,0,0,0,0,0,0,0,0,0,0,0,0,1.7503,1.7424,1.7645,1.7598,1.7595,1.7712,1.7713,1.7714,1.7601,1.7595,1.7589,1.7584,1.7652,1.766,1.7668,1.7834,0,0,1.7693,1.7696,0,0,0,0,0,0,0,0,1.7499,1.7512,1.7604,1.7602,1.7598,1.7641,1.7657,1.7754,1.7602,1.7599,1.7588,1.7581,1.7656,1.7663,1.7688,1.7837,1.784,1.7693,1.7698,1.7702,1.7704,0,0,0,0,0,0,0,1.7493,1.7508,1.7672,1.7606,1.7602,1.7573,1.7579,1.7675,1.7659,1.7598,1.759,1.76,1.7653,1.7681,1.7689,1.7841,1.7693,1.77,1.7705,1.7708,1.8123,1.8129,0,0,0,0,0,0,1.7493,1.7504,1.767,1.7674,1.7533,1.7582,1.7588,1.7633,1.7657,1.7656,1.7605,1.7594,1.767,1.768,1.7691,1.7882,1.7702,1.7709,1.7714,1.8117,1.8124,1.8131,0,0,0,0,0,0,1.7488,1.7509,1.7667,1.7587,1.7605,1.7592,1.7643,1.7638,1.7665,1.7662,1.7658,1.7636,1.7666,1.768,1.7798,1.7883,1.7713,1.772,1.811,1.8119,1.8128,1.827,0,0,0,0,0,0,1.7482,1.7508,1.7572,1.7589,1.7609,1.7774,1.7649,1.7643,1.768,1.7667,1.7691,1.7689,1.7662,1.7786,1.7806,1.7891,1.7727,1.8102,1.8114,1.8125,1.8257,1.8283,1.8304,0,0,0,0,0,1.7475,1.761,1.7576,1.7596,1.7689,1.7779,1.7791,1.7757,1.7687,1.775,1.7747,1.7688,1.7872,1.7799,1.782,1.791,1.8096,1.811,1.8124,1.8247,1.8278,1.8304,0,0,0,0,0,0,1.7605,1.7612,1.7573,1.7719,1.7749,1.776,1.7839,1.7792,1.7842,1.7828,1.7784,1.779,1.7916,1.7925,1.7845,1.8069,1.7972,1.7991,1.8058,1.8087,1.8111,1.8104,1.7733,0,0,0,0,0,1.765,1.7724,1.7726,1.7854,1.7871,1.7853,1.7891,1.7861,1.7891,1.7903,1.7909,1.794,1.8003,1.8046,1.8105,1.8259,1.826,1.833,1.8354,1.8373,1.8389,1.8465,1.8495,1.8176,1.8176,1.8176,0,0,1.7746,1.7758,1.7808,1.788,1.79,1.7975,1.7864,1.795,1.8004,1.7916,1.8027,1.8032,1.8063,1.8198,1.8258,1.821,1.8477,1.8391,1.8406,1.8411,1.8483,1.8513,1.854,1.8186,1.8184,1.8182,0,0,1.7956,1.7975,1.8081,1.8103,1.8134,1.812,1.8145,1.8163,1.8162,1.8273,1.8207,1.8271,1.8383,1.8406,1.8432,1.8648,1.8594,1.8668,1.879,1.8866,1.8891,1.8913,1.8985,1.9012,1.8685,1.8685,1.8685,0,1.807,1.8181,1.8142,1.823,1.8262,1.8186,1.8291,1.8314,1.8363,1.8386,1.8331,1.8467,1.8483,1.862,1.8672,1.8697,1.8722,1.8664,1.889,1.8912,1.8932,1.9,1.9028,1.8693,1.8693,1.8692,1.8691,0,1.8317,1.8395,1.8477,1.8524,1.8565,1.8663,1.8636,1.8683,1.865,1.8641,1.8752,1.8768,1.8826,1.8857,1.8827,1.8989,1.8957,1.8898,1.8799,1.8971,1.9035,1.9061,1.8706,1.8703,1.87,1.8698,0,0,1.8612,1.8634,1.8664,1.8682,1.8709,1.8768,1.886,1.8916,1.8955,1.8991,1.9065,1.916,1.9103,1.9133,1.9104,1.9171,1.9334,1.9101,1.9101,1.9141,1.9508,1.9551,1.9582,1.9299,1.9304,1.9308,1.9504,0,1.8818,1.8975,1.8941,1.9096,1.9164,1.9091,1.917,1.9194,1.9188,1.9245,1.9238,1.9304,1.9226,1.9243,1.9306,1.9301,1.9407,1.9287,1.9365,1.9368,1.9356,1.9616,1.9662,1.9846,1.9529,1.9534,1.9537,0,1.9079,1.9122,1.9283,1.9294,1.9321,1.9394,1.9439,1.9496,1.952,1.9511,1.9543,1.95,1.9588,1.949,1.961,1.9529,1.9559,1.9561,1.9567,1.957,1.9461,1.9623,1.9905,1.9931,1.9576,1.9573,1.957,0,1.9272,1.9371,1.9478,1.9497,1.9514,1.9565,1.9575,1.9594,1.9628,1.9669,1.969,1.9742,1.9769,1.9808,1.9779,1.9711,1.9902,1.9803,1.9894,1.9894,1.9935,1.9932,2.0222,1.9961,1.9961,1.996,1.9959,0,1.9503,1.9604,1.9564,1.9631,1.9739,1.9698,1.9807,1.9808,1.9825,1.9888,1.9829,1.9889,1.9849,1.9905,1.9883,1.9983,1.9997,1.999,1.9982,1.9993,1.9993,2.0009,1.9994,1.9967,1.9966,1.9964,1.9963,0,1.9737,1.9716,1.9827,1.9833,1.9836,1.9916,1.992,1.998,1.9969,2.0049,2.0066,2.0048,2.0111,2.0086,2.0155,2.0139,2.0265,2.0243,2.0256,2.0249,2.034,2.033,2.0648,2.0685,2.0404,2.0407,2.0409,0,1.9884,1.9959,1.9972,2.0009,2.0022,2.0084,2.0118,2.008,2.0118,2.0149,2.0205,2.0262,2.0306,2.041,2.0402,2.0453,2.0428,2.0536,2.0436,2.0443,2.0425,2.0419,2.0424,2.0555,2.0559,2.0561,2.0563,0,2.0146,2.013,2.0181,2.0228,2.0269,2.0305,2.0334,2.0369,2.0332,2.0377,2.0439,2.0473,2.0541,2.0597,2.0641,2.065,2.06,2.0595,2.0618,2.0628,2.0631,2.0626,2.0307,2.0588,2.0585,2.0583,2.0582,2.0581,2.0338,2.0398,2.0416,2.0473,2.0491,2.0519,2.0574,2.0569,2.0621,2.0671,2.0646,2.0718,2.0737,2.0791,2.0806,2.086,2.0818,2.0853,2.0861,2.0869,2.0878,2.0626,2.0869,2.0868,2.0867,2.0867,2.0866,0,2.0592,2.0599,2.0652,2.0694,2.0739,2.0688,2.0717,2.0757,2.0821,2.0843,2.0886,2.0956,2.101,2.1006,2.1055,2.1099,2.1077,2.1113,2.1108,2.1109,2.0916,2.0889,2.113,2.113,2.113,2.113,2.113,2.113,2.073,2.0828,2.0815,2.092,2.0926,2.0995,2.1016,2.104,2.1057,2.1138,2.1181,2.1178,2.1189,2.1237,2.1283,2.128,2.1299,2.1343,2.1332,2.115,2.1124,2.1099,2.1073,2.1349,2.1349,2.152,2.1522,2.1523]}]]